ATLAS 5 CENTAUR DEB, 43998

Orbit data source: Space-Track

ATLAS 5 CENTAUR DEB, 43998 is space debris in HEO originally from a launch on Wed, 17 Sep 2014 UTC launched from the Air Force Eastern Test Range (AFETR). Debris objects in space refer to the collection of defunct objects orbiting the Earth. Examples of debris include non-operational satellites, rocket bodies, and fragments generated from explosions, collisions, or faulty payload assembly.

Loading next visibility...
Identifier
43998, 2014-055BD
Orbit
HEO
Country
Flag of USUS
Related business
Flag of USUnited Launch Alliance/Lockheed Martin (US)
Manufacturer
Unknown
Mission
Spacecraft
Bus & Motor
Unknown
Mass
Unknown
Launch date (UTC)
2014-09-17 (12 years ago)
Launch vehicle
Unknown
Launch site
Air Force Eastern Test Range (AFETR)
Object type
Payload
Rocket body
Debris
Shape & HBR
Unknown shape, 1.1 m
Radar Cross Section
Medium (>0.1 m² and <1 m²)

Expand to show TLE details & history
Last TLE update: 21 hours ago

TLE from 21 hours ago
0 ATLAS 5 CENTAUR DEB
1 43998U 14055BD  26119.21090233 -.00000008  00000-0  00000+0 0  9995
2 43998  20.3586 136.2421 5074306 180.3793 179.0566  1.83524088 50428
Epoch: 2026-04-29T05:03Z
TLE epoch observation values (Epoch: 2026-04-29T05:03:41.961Z)
Latitude
-0.00001°
Longitude
-156.82972°
Altitude
36,070.699 km
Speed
2.153 km/s
True Right ascension
09h 05m 04s
True Declination
0° 00' 00"
Sunlit
Object was in daylight at epoch
Visualization orbit readout
Latitude
Unknown
Longitude
Unknown
Altitude
Unknown
Speed
Unknown
Apparent Right ascension
Unknown
Apparent Declination
Unknown
Sunlit
N/A
Visualization observer readout
Local Sidereal Time
09:33:03
Azimuth
Unknown
Elevation
Unknown
Doppler factor
Unknown
Orbital elements
Apogee altitude
36,104.18 km
Perigee altitude
7,503.424 km
Semi-major axis
28,181.939 km
Eccentricity
0.50743
Inclination
20.3586°
RAAN
136.2421°
Arg. of periapsis
180.3793°
True anomaly
179.64225°
Mean anomaly
179.0566°
Eccentric anomaly
179.37416°
Mean motion
0.45876 °/min
Orbital period
784.72 mins
BSTAR
0
Loading maneuver chart data...
Computing Atmospheric mass density...

Documentation

Showing up to 5 results
|